Location: Eaton Estates
(41.3089°N, 82.0057°W)
Time: 05:44:44
(UTC+00:00)

CUTE-I - Visible Passes

Search period start: 23 March 2023 00:00
Search period end: 02 April 2023 00:00
Orbit: 809 x 823 km, 98.7° (Epoch: 21 March)

Date Brightness Start Highest point End Pass type
(mag) Time Alt. Az. Time Alt. Az. Time Alt. Az.
24 Mar ? 00:29:11 10° WSW 00:31:27 13° W 00:33:46 10° WNW visible
25 Mar ? 00:05:25 10° SW 00:09:19 21° W 00:13:15 10° NW visible
25 Mar ? 10:41:24 10° NE 10:45:13 19° E 10:49:00 10° SE visible
26 Mar ? 10:21:07 10° ENE 10:23:03 12° E 10:24:59 10° ESE visible
29 Mar ? 00:18:44 10° SW 00:21:53 16° W 00:25:04 10° NW visible
30 Mar ? 10:32:27 10° NE 10:35:39 16° E 10:38:51 10° SE visible
